Location: Borea
(45.6167°N, 23.0167°E)
Time: 10:38:18
(UTC+00:00)

Cosmos 2333 Rocket - Pass Details

Date: 03 February 2023
Orbit: 838 x 864 km, 70.8° (Epoch: 20 March)

Event Time Altitude Azimuth Distance (km) Brightness Sun altitude
Rises 18:12:02 0° 220° (SW) 3,380 5.8 -27.4°
Reaches altitude 10° 18:14:32 10° 225° (SW) 2,451 5.1 -27.8°
Maximum altitude 18:20:01 53° 302° (WNW) 1,035 2.8 -28.8°
Enters shadow 18:22:24 32° 1° (N) 1,423 3.3 -29.2°
